Weather History for Buffalo, WY

Change the Weather History Date:

Tuesday, February 5, 2013

  Actual Average Record
Temperature  
Mean Temperature 31 °F 27 °F  
Max Temperature 38 °F 37 °F 54 °F (2007)
Min Temperature 24 °F 17 °F -20 °F (2014)
Degree Days  
Heating Degree Days 34 38  
Month to date heating degree days 172 190  
Since 1 July heating degree days 4050 4397  
Cooling Degree Days 0 0  
Month to date cooling degree days 0 0  
Year to date cooling degree days 0 0  
Moisture  
Dew Point 22 °F    
Average Humidity 59    
Maximum Humidity 69    
Minimum Humidity 48    
Precipitation  
Precipitation 0.00 in 0.02 in 0.02 in (2003)
Month to date precipitation 0.01 0.07  
Year to date precipitation 0.49 0.49  
Sea Level Pressure  
Sea Level Pressure 29.91 in    
Wind  
Wind Speed 7 mph (SSW)    
Max Wind Speed 21 mph    
Max Gust Speed 25 mph    
Visibility 10 miles    
Events      
T = Trace of Precipitation, MM = Missing Value Source: NWS Daily Summary

Daily Weather History Graph

Daily Weather History Graph

Search for Another Location

Airport:

Trip Planner

Search our weather history database for the weather conditions in past years. The results will help you decide how hot, cold, wet, or windy it might be!

Date:

Astronomy

Feb. 05, 2013 Rise Set
Actual Time 7:20 AM MST 5:22 PM MST
Civil Twilight 6:49 AM MST 5:52 PM MST
Nautical Twilight 6:14 AM MST 6:27 PM MST
Astronomical Twilight 5:41 AM MST 7:01 PM MST
Moon 3:09 AM MST (2/5) 12:38 PM MST (2/5)
Length of Visible Light 11h 03m
Length of Day
10h 02m
Waning Crescent, 26% of the Moon is Illuminated
Feb 5
Waning Crescent
Feb 10
New
Feb 17
First Quarter
Feb 25
Full
Mar 4
Last Quarter

Hourly Weather History & Observations

Time (MST) Temp. Windchill Dew Point Humidity Pressure Visibility Wind Dir Wind Speed Gust Speed Precip Events Conditions
12:53 AM 37.0 °F 34.5 °F 21.0 °F 52% 29.93 in 10.0 mi Variable 3.5 mph - N/A   Overcast
1:53 AM 35.1 °F 30.1 °F 23.0 °F 61% 29.95 in 10.0 mi NNW 5.8 mph - N/A   Overcast
2:53 AM 28.9 °F 23.9 °F 19.0 °F 67% 29.97 in 10.0 mi West 4.6 mph - N/A   Partly Cloudy
3:53 AM 34.0 °F 27.2 °F 21.9 °F 61% 29.96 in 10.0 mi NNW 8.1 mph - N/A   Partly Cloudy
4:53 AM 28.0 °F 22.8 °F 19.9 °F 72% 30.00 in 10.0 mi NW 4.6 mph - N/A   Clear
5:53 AM 26.1 °F 17.6 °F 17.1 °F 69% 30.02 in 10.0 mi WSW 8.1 mph - N/A   Clear
6:53 AM 28.0 °F 24.2 °F 18.0 °F 66% 30.03 in 10.0 mi SW 3.5 mph - N/A   Partly Cloudy
7:53 AM 32.0 °F 27.5 °F 19.9 °F 61% 30.01 in 10.0 mi SSW 4.6 mph - N/A   Clear
8:53 AM 34.0 °F 25.5 °F 21.9 °F 61% 29.99 in 10.0 mi South 11.5 mph - N/A   Overcast
9:53 AM 35.1 °F 25.9 °F 24.1 °F 64% 29.97 in 10.0 mi South 13.8 mph - N/A   Overcast
10:53 AM 36.0 °F 26.7 °F 24.1 °F 62% 29.96 in 10.0 mi South 15.0 mph - N/A   Overcast
11:53 AM - - - N/A% 29.89 in - North - - N/A   Unknown
12:53 PM 37.9 °F 28.2 °F 23.0 °F 55% 29.87 in 10.0 mi SSE 18.4 mph - N/A   Mostly Cloudy
1:53 PM 37.9 °F 30.0 °F 24.1 °F 57% 29.84 in 10.0 mi SSE 12.7 mph - N/A   Clear
2:53 PM 37.9 °F 31.5 °F 24.1 °F 57% 29.85 in 10.0 mi SSE 9.2 mph - N/A   Clear
3:53 PM 37.9 °F 32.1 °F 24.1 °F 57% 29.83 in 10.0 mi SE 8.1 mph - N/A   Clear
4:53 PM 35.1 °F 31.0 °F 25.0 °F 67% 29.85 in 10.0 mi South 4.6 mph - N/A   Clear
5:53 PM 35.1 °F 30.1 °F 24.1 °F 64% 29.85 in 10.0 mi SSW 5.8 mph - N/A   Clear
6:53 PM 34.0 °F 28.8 °F 21.9 °F 61% 29.84 in 10.0 mi SSW 5.8 mph - N/A   Clear
7:53 PM 35.1 °F - 21.0 °F 57% 29.81 in 10.0 mi Calm Calm - N/A   Clear
9:53 PM 35.1 °F - 19.9 °F 54% 29.78 in 10.0 mi Calm Calm - N/A   Clear
10:53 PM 37.0 °F - 19.9 °F 50% 29.76 in 10.0 mi Calm Calm - N/A   Clear